Lid_Strength_Index
22 22 22 21 21 21 23 24 23 17 23 17 19 20 19 20 18 17 17 18 19 15 14 15 17 17 18 18 17 16 17 17 17 16 15 14 14 13 13 12 12 12 12 12
23 22 21 22 21 20 20 21 23 21 20 15 14 16 19 18 21 19 19 21 17 15 14 16 17 18 19 18 18 17 18 18 18 17 16 15 14 14 14 13 12 12 12 12
25 23 23 22 20 20 21 22 21 23 18 19 20 21 23 20 21 20 19 21 16 18 15 16 17 19 20 19 17 18 18 18 18 18 17 16 16 15 14 14 14 13 13 12
26 25 26 17 19 18 19 19 20 20 19 18 20 20 20 21 21 19 21 19 17 19 16 21 21 21 21 20 19 17 17 18 18 17 17 17 16 16 15 14 14 14 14 13
26 30 21 16 21 21 21 18 18 18 16 16 18 18 16 20 20 18 20 19 19 22 23 24 23 22 22 21 21 18 17 18 17 17 18 18 18 17 16 15 15 14 14 14
32 28 26 17 20 19 19 20 18 17 17 18 17 21 18 22 23 20 20 22 21 24 26 25 22 24 22 22 21 18 18 17 17 17 17 18 17 17 16 15 16 15 15 15
33 30 24 17 18 18 21 17 18 18 17 18 18 17 19 24 21 19 21 21 25 25 23 23 24 22 21 21 20 19 19 19 17 17 17 17 16 16 16 16 16 16 16 16
32 31 26 18 18 19 16 17 17 18 18 17 17 17 18 19 16 15 17 20 18 16 20 22 24 19 20 19 20 20 18 19 19 18 17 17 17 17 17 17 17 17 17 17
22 21 16 17 16 16 16 17 17 16 16 17 17 16 16 16 16 14 18 18 19 18 17 19 19 16 16 19 19 19 19 21 20 18 17 17 18 18 18 18 18 18 18 19
20 15 17 16 15 15 16 16 16 15 15 16 16 15 15 15 15 15 16 17 18 18 18 17 18 17 18 19 19 23 23 20 20 20 19 18 17 17 18 19 19 19 19 20
19 16 15 14 15 15 15 15 16 16 16 16 16 15 15 16 16 16 16 18 18 18 17 17 18 19 21 20 21 22 23 21 20 20 20 19 17 17 17 18 17 19 20 21
16 13 14 13 13 15 16 15 15 16 16 16 16 15 15 16 15 16 17 18 19 18 18 18 19 20 21 23 23 23 22 22 22 22 23 21 21 19 12 13 13 13 13 16
11 13 13 14 15 15 16 16 15 17 16 16 17 17 17 16 17 17 18 18 18 18 17 19 20 20 22 23 24 24 24 23 24 23 24 24 24 23 21 17 13 12 13 13
14 15 13 14 15 14 16 16 19 19 20 19 18 21 19 18 21 17 17 17 17 18 19 19 20 20 21 24 25 24 24 23 23 23 24 25 25 25 22 24 26 25 19 15
12 13 10 12 17 14 18 20 19 18 18 19 21 20 21 19 18 17 16 18 19 19 19 21 21 20 24 25 24 24 24 24 24 25 25 25 25 25 26 27 28 29 23 21
18 18 19 17 14 14 18 23 19 16 16 17 19 20 19 18 17 17 19 20 20 19 19 20 20 19 24 25 24 26 26 24 25 26 27 27 26 27 27 28 29 29 25 23
17 14 21 16 15 14 13 14 15 15 15 18 18 18 21 21 23 22 20 20 18 18 18 19 18 22 23 23 23 22 23 25 25 27 26 26 27 26 28 29 28 28 27 26
14 11 14 11 11 12 12 14 17 16 16 16 17 22 22 22 19 17 18 20 25 25 23 19 20 23 23 24 23 23 23 23 25 24 25 26 27 27 27 28 25 19 19 19
19 15 17 18 18 15 15 15 16 15 18 19 23 21 20 20 19 18 20 21 20 20 17 21 19 22 23 24 23 23 24 26 28 29 27 28 28 28 27 24 21 18 17 17
25 27 27 27 28 26 22 21 19 18 19 22 23 25 22 21 24 23 21 19 17 18 20 19 19 21 22 23 20 23 23 22 21 22 24 25 24 24 22 19 18 17 16 16
27 29 28 29 27 29 27 26 25 22 21 26 24 22 23 24 25 23 19 17 16 20 20 20 19 18 21 22 22 23 23 21 20 20 21 22 22 21 19 18 17 16 16 16
30 29 27 29 29 28 28 28 29 27 25 27 27 26 25 25 26 25 25 20 20 20 19 20 20 20 20 20 20 22 22 21 21 20 20 20 19 18 17 16 16 16 16 18
31 32 31 29 29 29 29 29 28 31 29 29 28 27 25 25 25 23 25 23 23 21 21 23 21 20 21 21 22 22 20 20 20 20 19 18 17 16 16 17 19 20 21 23
32 31 31 30 33 28 27 28 29 29 32 30 27 27 26 25 23 23 23 24 23 20 22 22 19 18 19 19 19 19 19 20 19 19 18 19 20 21 22 22 23 24 25 25
32 31 30 27 27 27 30 30 29 28 27 26 25 25 25 23 22 22 22 22 21 21 20 19 18 18 19 20 22 23 24 23 23 23 24 24 24 25 25 25 25 24 25 25
28 28 30 30 29 27 28 27 26 26 25 25 25 24 24 23 23 24 24 24 24 24 25 24 24 24 25 25 26 26 26 26 26 26 26 26 26 26 26 26 25 25 25 25
25 24 24 24 24 25 25 26 26 27 26 25 26 25 25 25 26 26 26 26 26 27 27 27 27 27 27 27 28 28 27 27 27 27 27 26 26 26 26 26 26 25 25 25